Back to catalog

SL-14 R/B

AlivePO
NORAD 15945·ROCKET BODY·🇷🇺 Russia

Launched Aug 8, 1985 from Plesetsk Cosmodrome

Loading…

Next Passes (next 24 hours)

TLE

FreshSource: Space-Track

Epoch: Sep 14, 2026, 06:57 UTC

1 15945U 85069B   26257.29003895  .00000351  00000-0  36756-4 0  9990
2 15945  82.5276 207.5589 0017243 289.4045  70.5307 14.86569316200857

Track SL-14 R/B in real time with AllMySat

Download on the App Store